Location: Unspecified
(0.0000°N, 0.0000°E)
Time: 10:48:43
(UTC+01:00)

Centaur D-1AR AC-41 - Visible Passes

Search period start: 19 February 2018 00:00
Search period end: 01 March 2018 00:00
Orbit: 654 x 36186 km, 21.5° (Epoch: 18 February)

Date Brightness Start Highest point End Pass type
(mag) Time Alt. Az. Time Alt. Az. Time Alt. Az.
19 Feb 6.9 00:04:34 10° WSW 00:10:33 19° W 00:10:33 19° W visible
19 Feb 5.3 11:42:07 10° WNW 13:13:15 64° WSW 21:46:08 62° ESE visible
21 Feb 6.2 06:34:20 10° NW 06:45:38 45° NNE 16:40:34 10° ESE visible
22 Feb 6.3 04:08:45 14° NNE 04:08:45 14° NNE 04:13:59 10° NE visible
23 Feb 5.8 13:05:22 10° W 14:36:16 40° WSW 22:56:20 51° W visible
24 Feb 6.0 10:21:07 10° WNW 20:21:14 66° S 20:31:58 24° E visible
26 Feb 5.9 05:18:48 17° NNW 05:24:57 31° NNE 15:15:14 10° ESE visible
28 Feb 7.0 00:04:24 10° W 00:06:35 13° W 00:06:35 13° W visible
28 Feb 5.0 11:39:41 10° WNW 13:11:55 57° WSW 21:42:12 71° E visible
